User: anonymous
Location: Unspecified
(0.0000°N, 0.0000°E)
Time: 13:46:27
(UTC+02:00)
Language:

Cosmos 1515 Rocket - Orbit

View from above orbital plane
View from above orbital plane
View from above satellite
View from above satellite

Ground track
Ground track

The orbit data is extracted from the following two-line orbital elements,

1 14552U 83122B   14233.41273687  .00000179  00000-0  19205-4 0  9374
2 14552 082.5272 321.3302 0016065 319.9701 087.2788 14.82870994656398
Epoch (UTC): 21 August 2014 09:54:20
Eccentricity: 0.0016065
inclination: 82.5272°
perigee height: 609 km
apogee height: 631 km
right ascension of ascending node: 321.3302°
argument of perigee: 319.9701°
revolutions per day: 14.82870994
mean anomaly at epoch: 87.2788°
orbit number at epoch: 65639

The dashed part of the orbit path shows where the satellite is in the earth's shadow,  

DLR